Location: Berkeley
(37.8716°N, 122.2727°W)
Time: 11:29:15
(UTC-07:00)

Envisat - Pass Details

Date: 28 April 2024
Orbit: 762 x 764 km, 98.3° (Epoch: 29 May)

Event Time Altitude Azimuth Distance (km) Brightness Sun altitude
Rises 03:38:50 0° 25° (NNE) 3,233 7.4 -26.7°
Reaches altitude 10° 03:41:27 10° 37° (NE) 2,302 6.5 -26.4°
Maximum altitude 03:45:48 28° 96° (E) 1,400 4.6 -25.8°
Enters shadow 03:48:37 17° 142° (SE) 1,836 4.9 -25.4°
